Вернуться в каталог

SL-12 DEB

АктивенHEO
NORAD 42974·DEBRIS·🇷🇺 Russia

Запущен Sep 2, 2010 с Baikonur Cosmodrome

Loading…

Ближайшие Пролёты (ближайшие 24 часа)

TLE

СвежийSource: Space-Track

Эпоха: Sep 13, 2026, 15:56 UTC

1 42974U 10041P   26256.66453436 -.00000024  00000-0  13649-3 0  9993
2 42974  65.0240  27.2181 5615062 305.5133  14.2192  4.32644873141760

Отслеживайте SL-12 DEB в реальном времени с AllMySat

Download on the App Store